www.pogodaiklimat.ru

Погода и климат >> Архив погоды >> Австралия >> Северная территория >> Юлара


ПОГОДА в Юларе

  • Прогноз погоды в Юларе
  • Монитор погоды в Юларе

АРХИВ ПОГОДЫ в Юларе

Время (UTC), дата Ветер
(напр.,м/с)
 
Видим.   Явления Облачность Т
(С)
Тd
(С)
f
(%)
Тe
(С)
Тes
(С)
Комфортность P
(гПа)
Po
(гПа)
Тmin
(С)
Tmax
(С)
R
(мм)
R24
(мм)
S
(см)
23 17.03 В 4 н/о н/о +27.1 +1.5 19 +25 +25 комфорт 1013.0 958.3
00 18.03 В 6 н/о н/о +30.4 -3.3 11 +27 +27 жарко 1013.3 958.6
02 18.03 В 5 н/о н/о +34.9 -4.2 8 +31 +31 жарко 1012.4 957.7 +21.8
03 18.03 СВ 6 н/о н/о +35.8 -3.5 8 +32 +32 жарко 1011.2 956.6
05 18.03 ЮВ 6 н/о н/о +36.8 -1.2 9 +33 +33 жарко 1009.1 954.6
06 18.03 Ю 5 н/о н/о +38.2 -0.2 9 +34 +34 очень
жарко
1008.2 953.8
08 18.03 ЮВ 6 н/о н/о +36.7 +0.1 10 +33 +33 жарко 1007.9 953.5
09 18.03 ЮВ 5 н/о н/о +35.9 +0.9 11 +32 +32 жарко 1008.1 953.7
11 18.03 ЮВ 3 н/о н/о +31.4 +1.7 15 +29 +29 жарко 1009.8 955.3
12 18.03 ЮВ 3 н/о н/о +30.2 +2.5 17 +28 +28 жарко 1010.6 956.0
14 18.03 ЮВ 4 н/о 9/0
[]
+29.4 +1.8 17 +27 +27 жарко 1010.9 956.3 +38.7
15 18.03 В 4 н/о н/о +28.6 +1.2 17 +26 +26 жарко 1010.7 956.1
17 18.03 В 4 н/о н/о +26.7 +1.2 19 +25 +25 комфорт 1010.2 955.6
18 18.03 В 3 н/о н/о +25.3 +1.4 21 +24 +24 комфорт 1010.2 955.6
20 18.03 ЮВ 4 н/о 9/0
[]
+22.5 +1.5 25 +22 +22 комфорт 1010.3 955.7
21 18.03 В 4 н/о н/о +23.9 +2.1 24 +23 +23 комфорт 1010.8 956.2
23 18.03 В 6 н/о н/о +27.8 +0.5 17 +26 +26 жарко 1011.7 957.1
00 19.03 В 6 н/о н/о +31.3 +0.6 14 +28 +28 жарко 1012.4 957.7
02 19.03 В 6 н/о н/о +35.3 -0.9 10 +32 +32 жарко 1011.6 957.0 +22.4
03 19.03 В 6 н/о н/о +36.9 +0.3 10 +33 +33 жарко 1010.5 955.9
05 19.03 В 6 н/о 6/0
[]
+38.3 -0.1 9 +35 +35 очень
жарко
1008.1 953.7
06 19.03 В 7 н/о н/о +37.9 -0.4 9 +34 +34 очень
жарко
1007.6 953.2
08 19.03 В 7 н/о н/о +37.5 +0.7 10 +34 +34 очень
жарко
1007.4 953.0
09 19.03 В 6 н/о н/о +37.0 +0.4 10 +33 +33 жарко 1007.6 953.2
11 19.03 ЮВ 4 н/о 6/0
[]
+33.3 +2.2 14 +30 +30 жарко 1009.6 955.1
12 19.03 ЮВ 4 н/о н/о +32.4 +3.4 16 +30 +30 жарко 1010.4 955.8
14 19.03 В 5 н/о 10/0
[]
+30.9 +3.8 18 +29 +29 жарко 1010.9 956.3 +39.9
15 19.03 В 4 н/о н/о +29.5 +4.2 20 +28 +28 жарко 1010.7 956.1
17 19.03 В 6 н/о 9/0
[]
+28.0 +5.6 24 +27 +27 жарко 1010.3 955.7
18 19.03 ЮВ 4 н/о н/о +27.3 +6.1 26 +27 +27 жарко 1010.2 955.6
20 19.03 В 4 н/о 10/0
[]
+25.8 +5.9 28 +25 +25 комфорт 1010.5 955.9
21 19.03 ЮВ 3 н/о н/о +24.8 +6.1 30 +25 +25 комфорт 1011.2 956.6
23 19.03 В 8 н/о н/о +29.1 +5.9 23 +28 +28 жарко 1012.1 957.4
00 20.03 В 9 н/о н/о +32.6 +4.4 17 +30 +30 жарко 1012.4 957.7
02 20.03 В 7 н/о 9/0
[]
+35.0 +2.5 13 +32 +32 жарко 1011.9 957.3 +24.0
03 20.03 СВ 6 н/о н/о +37.5 +3.3 12 +34 +34 очень
жарко
1010.8 956.2
05 20.03 ЮВ 5 н/о 1/0
[]
+38.3 +2.7 11 +35 +35 очень
жарко
1008.9 954.4
06 20.03 В 5 н/о н/о +37.7 +0.9 10 +34 +34 очень
жарко
1008.4 953.9
08 20.03 ЮВ 7 н/о н/о +38.2 +2.6 11 +35 +35 очень
жарко
1008.0 953.6
09 20.03 ЮВ 5 н/о н/о +37.4 +2.0 11 +34 +34 очень
жарко
1008.1 953.7
11 20.03 В 4 н/о н/о +33.6 +3.4 15 +31 +31 жарко 1009.6 955.1
12 20.03 В 3 н/о н/о +32.3 +4.2 17 +30 +30 жарко 1010.5 955.9
14 20.03 В 2 н/о н/о +28.4 +4.0 21 +27 +27 жарко 1010.7 956.1 +39.3
15 20.03 В 3 н/о н/о +28.5 +4.7 22 +27 +27 жарко 1010.7 956.1
17 20.03 В 3 н/о н/о +27.2 +5.5 25 +26 +26 жарко 1009.8 955.3
18 20.03 ЮВ 3 н/о н/о +25.4 +5.6 28 +25 +25 комфорт 1009.6 955.1
20 20.03 ЮВ 2 н/о н/о +23.9 +5.8 31 +24 +24 комфорт 1009.8 955.3
21 20.03 ЮВ 2 н/о н/о +22.7 +6.0 34 +23 +23 комфорт 1010.6 956.0
23 20.03 В 6 н/о н/о +29.0 +6.4 24 +28 +28 жарко 1011.4 956.8
00 21.03 В 7 н/о н/о +32.5 +6.7 20 +31 +31 жарко 1011.7 957.1
02 21.03 СВ 6 н/о н/о +35.8 +5.1 15 +33 +33 жарко 1010.9 956.3 +21.8
03 21.03 В 6 н/о н/о +37.2 +4.2 13 +34 +34 очень
жарко
1010.0 955.5
05 21.03 В 7 н/о н/о +38.8 +3.1 11 +36 +36 очень
жарко
1008.0 953.6
06 21.03 ЮВ 5 н/о н/о +39.3 +3.4 11 +36 +36 очень
жарко
1007.1 952.7
08 21.03 ЮВ 6 н/о н/о +38.4 +4.0 12 +35 +35 очень
жарко
1007.0 952.6
09 21.03 В 5 н/о н/о +37.7 +3.4 12 +35 +35 очень
жарко
1007.3 952.9
11 21.03 ЮВ 3 н/о 1/0
[]
+33.3 +5.0 17 +31 +31 жарко 1008.9 954.4
12 21.03 В 2 н/о н/о +31.8 +5.3 19 +30 +30 жарко 1009.3 954.8
14 21.03 В 3 н/о н/о +30.0 +5.3 21 +28 +28 жарко 1009.3 954.8 +40.2
15 21.03 В 4 н/о н/о +29.6 +5.0 21 +28 +28 жарко 1009.2 954.7
17 21.03 В 3 н/о н/о +26.4 +4.8 25 +26 +26 жарко 1009.0 954.5
18 21.03 Ю 3 н/о н/о +24.7 +5.5 29 +24 +24 комфорт 1008.9 954.4
23 21.03 В 3 н/о н/о +28.1 +5.0 23 +27 +27 жарко 1010.5 955.9
02 22.03 СВ 6 н/о н/о +37.0 +4.0 13 +34 +34 очень
жарко
1008.9 954.4 +19.5
03 22.03 СВ 6 н/о н/о +38.9 +3.1 11 +36 +36 очень
жарко
1007.3 952.9
05 22.03 В 7 н/о н/о +39.9 +1.1 9 +36 +36 очень
жарко
1005.2 950.9
06 22.03 СВ 4 н/о н/о +39.6 +0.9 9 +36 +36 очень
жарко
1004.4 950.2
08 22.03 СВ 4 н/о н/о +38.7 +0.2 9 +35 +35 очень
жарко
1004.2 950.0
09 22.03 В 3 н/о н/о +38.6 +1.6 10 +35 +35 очень
жарко
1004.5 950.3
11 22.03 В 4 н/о н/о +34.2 +1.9 13 +31 +31 жарко 1005.8 951.5
12 22.03 В 4 н/о н/о +33.5 +2.4 14 +30 +30 жарко 1006.2 951.9
14 22.03 В 4 н/о н/о +30.6 +2.8 17 +28 +28 жарко 1006.1 951.8 +41.4
15 22.03 СВ 4 н/о н/о +30.0 +3.1 18 +28 +28 жарко 1005.9 951.6
17 22.03 В 3 8000 м н/о +27.4 +3.2 21 +26 +26 жарко 1005.8 951.5
18 22.03 ЮВ 3 н/о н/о +25.6 +3.6 24 +25 +25 комфорт 1005.2 950.9
20 22.03 Ю 3 н/о н/о +22.5 +3.1 28 +22 +22 комфорт 1005.5 951.2
21 22.03 Ю 4 н/о н/о +22.5 +3.1 28 +22 +22 комфорт 1006.1 951.8
23 22.03 ЮВ 2 н/о н/о +29.3 +3.3 19 +27 +27 жарко 1007.0 952.6
00 23.03 В 3 н/о н/о +33.2 +2.1 14 +30 +30 жарко 1007.1 952.7
02 23.03 С 6 н/о н/о +37.6 +5.6 14 +35 +35 очень
жарко
1006.3 952.0 +21.4
03 23.03 СЗ 3 н/о н/о +39.3 +2.1 10 +36 +36 очень
жарко
1005.3 951.0
05 23.03 В 4 н/о н/о +40.0 +2.6 10 +37 +37 очень
жарко
1003.3 949.1
06 23.03 С 3 н/о н/о +39.6 +2.3 10 +36 +36 очень
жарко
1002.8 948.6
08 23.03 В 4 н/о 9/0
[]
+40.2 +2.8 10 +37 +37 очень
жарко
1002.3 948.2
09 23.03 ЮВ 3 н/о н/о +39.1 +3.3 11 +36 +36 очень
жарко
1002.6 948.5
11 23.03 ЮВ 2 н/о 10/0
[]
+36.4 +3.6 13 +33 +33 жарко 1003.5 949.3
12 23.03 В 3 н/о н/о +35.9 +4.2 14 +33 +33 жарко 1003.7 949.5
14 23.03 Ю 9 н/о н/о +31.5 +5.1 19 +29 +29 жарко 1005.6 951.3 +42.1
15 23.03 Ю 7 н/о н/о +30.1 +5.4 21 +28 +28 жарко 1005.7 951.4
17 23.03 Ю 6 н/о н/о +27.6 +10.3 34 +28 +28 жарко 1005.2 950.9
18 23.03 Ю 5 н/о н/о +26.5 +10.6 37 +27 +27 жарко 1004.9 950.6
20 23.03 В 4 н/о 3/0
[]
+26.6 +10.7 37 +27 +27 жарко 1005.7 951.4
21 23.03 ЮВ 4 н/о н/о +25.5 +10.9 40 +27 +27 жарко 1006.5 952.1
23 23.03 В 6 н/о н/о +27.6 +10.8 35 +28 +28 жарко 1007.5 953.1
00 24.03 В 5 н/о н/о +29.7 +11.2 32 +30 +30 жарко 1007.7 953.3
02 24.03 ЮВ 4 н/о н/о +34.2 +12.0 26 +34 +34 очень
жарко
1006.8 952.4 +24.6
03 24.03 ЮВ 3 н/о н/о +35.6 +11.9 24 +35 +35 очень
жарко
1006.1 951.8
05 24.03 З 2 н/о н/о +37.4 +9.9 19 +36 +36 очень
жарко
1004.1 949.9
06 24.03 СВ 3 н/о н/о +37.7 +9.3 18 +36 +36 очень
жарко
1003.3 949.1
08 24.03 Ю 3 н/о 10/0
[]
+37.3 +9.8 19 +36 +36 очень
жарко
1002.9 948.7
09 24.03 Ю 9 н/о н/о +34.6 +11.1 24 +34 +34 очень
жарко
1003.6 949.4
11 24.03 Ю 7 н/о н/о +32.2 +11.4 28 +32 +32 жарко 1005.4 951.1
12 24.03 Ю 7 н/о н/о +31.6 +11.4 29 +32 +32 жарко 1006.0 951.7
14 24.03 Ю 5 н/о 4/0
[]
+30.1 +11.1 31 +30 +30 жарко 1007.0 952.6 +39.3
15 24.03 Ю 5 н/о н/о +29.5 +11.1 32 +30 +30 жарко 1007.3 952.9
17 24.03 Ю 7 н/о 10/0
[]
+26.1 +13.9 47 +28 +28 жарко 1007.3 952.9
18 24.03 Ю 7 н/о н/о +25.5 +14.0 49 +28 +28 жарко 1007.2 952.8
20 24.03 Ю 6 н/о 9/0
[]
+24.8 +13.7 50 +27 +27 жарко 1008.4 953.9
21 24.03 Ю 5 н/о н/о +24.4 +13.3 50 +27 +27 жарко 1009.1 954.6

 

Местоположение метеостанции Юлара (Северная территория, Австралия): широта -25.20 долгота 130.98 высота над уровнем моря 492 м.

В архиве по умолчанию представлена погода в Юларе за последнюю неделю. Архивные данные за месяц целиком и за предыдущие месяцы, начиная с января 2011 года, Вы можете получить, выбрав интересующий диапазон дат из раскрывающегося списка и нажав кнопку "Ввод!".


*Определитесь, кто Вы:
робот инопланетянин человек

Внимание! Время в таблицах - всемирное. Для получения местного времени необходимо прибавить поправку, которая равна 8 ч.

Смотрите также архив погоды в соседних городах и на ближайших метеорологических станциях:

Погода в Эрнабелле (Южная Австралия, Австралия) (169 км)
Погода в Кинторе (Северная территория, Австралия) (270 км)
Погода в Джайлсе (Западная Австралия, Австралия) (271 км)
Погода в Элис-Спрингсе (Северная территория, Австралия) (332 км)
Погода на Виноградной ферма (Северная территория, Австралия) (408 км)
Погода в Уорбертоне (Западная Австралия, Австралия) (453 км)
Погода в Однадатте (Южная Австралия, Австралия) (516 км)
Погода в Кубер-Педи (Южная Австралия, Австралия) (564 км)
Погода в Раббит Флат (Северная территория, Австралия) (567 км)
Погода в Джервойсе (Северная территория, Австралия) (582 км)

Пояснения к столбцам:

Ветер - указаны скорость ветра в м/с - средняя за 10 мин, порывы в срок и между сроками (в фигурных скобках) и направление, откуда дует ветер: С - северный, СВ - северо-восточный, В - восточный, ЮВ - юго-восточный, Ю - южный, ЮЗ - юго-западный, З - западный, СЗ - северо-западный.
Видимость - горизонтальная дальность видимости в метрах или километрах. При видимости от 1 до 10 км при отсутствии осадков обычно наблюдается дымка, при ухудшении видимости до 1 км и менее - туман. В сухую погоду видимость может ухудшаться дымом, пылью или мглою.
Явления - указаны атмосферные явления, наблюдавшиеся в срок или в последний час перед сроком; фигурными скобками обозначены явления, наблюдавшиеся между сроками (за 1-3 часа до срока); квадратными скобками обозначены град или гололедные отложения с указанием их диаметра в мм.
Облачность - указаны через наклонную черту общая и нижняя облачность в баллах и высота нижней границы облаков в метрах; квадратными скобками обозначены формы облаков: Ci - перистые, Cs - перисто-слоистые, Cc - перисто-кучевые, Ac - высококучевые, As - высокослоистые, Sc - слоисто-кучевые, Ns - слоисто-дождевые, Cu - кучевые, Cb - кучево-дождевые. Подробнее классификацию облаков см. в Атласе облаков (PDF).
T - Температура воздуха - температура, измеренная на высоте 2 м над землей.
Td - Температура точки росы - температура, при понижении до которой содержащийся в воздухе водяной пар достигнет насыщения.
f - Относительная влажность воздуха - влажноcть воздуха, измеренная на высоте 2 м над землей.
Te - Эффективная температура - температура, которую ощущает одетый по сезону человек в тени. Характеристика душности погоды. При расчете учитывается влияние влажности воздуха и скорости ветра на теплоощущения человека.
Tes - Эффективная температура на солнце - температура, которую ощущает человек, с поправкой на солнечный нагрев. Характеристика знойности погоды. Зависит от высоты солнца над горизонтом, облачности и скорости ветра. Ночью, в пасмурную погоду, а также при ветре 12 м/с и более поправка равна нулю.
P - Атмосферное давление - приведенное к уровню моря атмосферное давление.
Po - Атмосферное давление - измеренное на уровне метеостанции атмосферное давление.
Tmin - Минимальная температура - минимум температуры воздуха на высоте 2 м над землей.
Tmax - Максимальная температура - максимум температуры воздуха на высоте 2 м над землей.
R - Количество осадков - Количество выпавших осадков за период времени, мм. При наведении курсора мыши на число - период времени, за который выпало указанное количество осадков.
R24 - Количество осадков - Количество выпавших осадков за 24 часа, мм.
S - Снежный покров - Высота снежного покрова, см. При наведении курсора мыши на число - состояние снежного покрова и степень покрытия местности в баллах.